Regional Weather Roundup
Issued by NWS Sterling, VA

Home | Current Version | Previous Version | Graphics & Text | Print | Product List | Glossary On
Versions: 1 2 3 4 5 6 7 8 9 10 11 12 13 14 15 16 17 18 19 20 21 22 23 24 25 26 27 28 29 30 31 32 33 34 35 36 37 38 39 40 41 42 43 44 45 46 47 48 49 50
144
ASUS41 KLWX 211211
RWRLWX

REGIONAL WEATHER ROUNDUP
NATIONAL WEATHER SERVICE BALTIMORE MD/WASHINGTON DC
800 AM EDT MON AUG 21 2017

Note: "FAIR" indicates few or no clouds below 12,000 feet
with no significant weather and/or obstructions to visibility.
 TC=TEMPERATURE CELSIUS

 * =Non NWS site. Station does not report precipitation (e.g. rain,
    snow, etc.), thunder, or fog.

DCZ001-MDZ009-015-VAZ040>042-051-053>054-211300-
WASHINGTON METRO

CITY           SKY/WX    TMP DP  RH WIND       PRES   REMARKS
WASHINGTON NAT PTSUNNY   77  72  84 SE3       30.21R
DULLES         PTSUNNY   74  71  91 S3        30.21R
ANDREWS AFB    MOSUNNY   74  70  88 CALM      30.21R
FT BELVOIR     MOSUNNY   73  72  94 CALM      30.20S
QUANTICO       PTSUNNY   77  74  90 S5        30.21R
COLLEGE PARK*  MOSUNNY   72  68  88 CALM      30.21R
LEESBURG*      CLOUDY    72  72 100 CALM      30.22S
MANASSAS*      SUNNY     73  70  90 CALM      30.21R
GAITHERSBURG*  SUNNY     74  69  85 SE6       30.23R

$$

MDZ006>007-011-014-211300-
BALTIMORE METRO

CITY           SKY/WX    TMP DP  RH WIND       PRES   REMARKS
BWI AIRPORT    PTSUNNY   74  70  87 CALM      30.20S
MD SCIENCE CTR   N/A     79  70  74 MISG      30.22R
MARTIN STATE   PTSUNNY   72  72 100 CALM      30.22S
ANNAPOLIS      MOSUNNY   78  75  90 CALM      30.20S
FORT MEADE*    MOSUNNY   68  66  94 CALM      30.23S

$$

MDZ012-015-019>023-211300-
MARYLAND EASTERN SHORE

CITY           SKY/WX    TMP DP  RH WIND       PRES   REMARKS
OCEAN CITY     SUNNY     73  72  96 CALM      30.23S
SALISBURY      SUNNY     70  69  97 CALM      30.21F
BAY BRIDGE AP* MOSUNNY   77  68  73 SE5       30.21R
CAMBRIDGE*     MOSUNNY   72  66  83 CALM      30.21S

$$

MDZ017>025-211300-
SOUTHERN MARYLAND

CITY           SKY/WX    TMP DP  RH WIND       PRES   REMARKS
PATUXENT RIVER PTSUNNY   76  75  97 CALM      30.21R
ST INIGOES     PTSUNNY   77  75  93 CALM      30.20S
LEONARDTOWN*   MOSUNNY   73  72  94 CALM      30.23R

$$

MDZ003>005-211300-
NORTH CENTRAL MARYLAND

CITY           SKY/WX    TMP DP  RH WIND       PRES   REMARKS
FREDERICK*     SUNNY     70  70 100 CALM      30.23S
HAGERSTOWN APT SUNNY     70  64  81 NW3       30.21R
WESTMINSTER*   SUNNY     73  70  88 SE3       30.22S

$$

MDZ501>502-211300-
WESTERN MARYLAND

CITY           SKY/WX    TMP DP  RH WIND       PRES   REMARKS
OAKLAND*       SUNNY     64  63  94 S5        30.27S
CUMBERLAND*    NOT AVBL

$$

VAZ025>031-211300-
SHENANDOAH VALLEY

CITY           SKY/WX    TMP DP  RH WIND       PRES   REMARKS
WINCHESTER*    SUNNY     70  66  88 CALM      30.21S
FRONT ROYAL*   SUNNY     70  70 100 S5        30.20S
LURAY*         MOSUNNY   68  68 100 CALM      30.23S
NEW MARKET*    MOSUNNY   67  66  95 CALM      30.23S
STAUNTON*      MOSUNNY   66  65  97 CALM      30.26S FOG
WAYNESBORO*    PTSUNNY   68  68 100 CALM      30.26R

$$

WVZ021-048>050-054>055-211300-
EASTERN WEST VIRGINIA PANHANDLE

CITY           SKY/WX    TMP DP  RH WIND       PRES   REMARKS
MARTINSBURG    SUNNY     69  63  81 CALM      30.20R
PETERSBURG*    CLOUDY    67  67  99 CALM      30.23S FOG

$$

VAZ036>039-050-211300-
CENTRAL FOOTHILLS

CITY           SKY/WX    TMP DP  RH WIND       PRES   REMARKS
CHARLOTTESVILL PTSUNNY   72  70  93 CALM      30.22R
CULPEPER*      SUNNY     71  71  99 CALM      30.22R FOG
ORANGE*        MOSUNNY   72  70  94 CALM      30.21S
GORDONSVILLE*  MOSUNNY   71  70  99 CALM      30.21R
WARRENTON*     SUNNY     73  68  83 CALM      30.21R

$$

VAZ055>057-211300-
NORTH AND CENTRAL PIEDMONT

CITY           SKY/WX    TMP DP  RH WIND       PRES   REMARKS
FREDERICKSBRG* CLOUDY    72  72 100 CALM      30.20S
STAFFORD*      MOSUNNY   70  70 100 CALM      30.25S

$$

NCZ024-NYZ072-PAZ021-071-VAZ022-071-211300-
OTHER REGIONAL OBSERVATIONS

CITY           SKY/WX    TMP DP  RH WIND       PRES   REMARKS
NEW YORK CITY  SUNNY     74  63  68 VRB3      30.23R
PHILADELPHIA   PTSUNNY   72  67  84 S3        30.23R
PITTSBURGH     PTSUNNY   68  64  87 S3        30.18R
ROANOKE        SUNNY     71  68  90 CALM      30.27R
RICHMOND       FOG       74  74 100 S5        30.21S VSB 1/4
RALEIGH        MOSUNNY   76  74  93 CALM      30.23R

$$

ANZ530>537-211300-
MARINE OBSERVATIONS

STATION/POSITION TIME  TEMP    WIND        PRES
                       AIR SEA DIR/SP/G
                 (UTC) (F)     (DEG/KT/KT) (MB)
THOMAS PT LIGHT  1200   78 80  160/  7/  7   N/A
BALT KEY BRIDGE  1148   76     180/  3/  3 1022.8R
COVE POINT       1148   78     210/  5/  5 1023.5R
LEWISETTA        1148   78 83  200/  4/  5 1022.8R
SOLOMONS ISLAND  1148   78 82  180/  4/  5   N/A
PINEY POINT      1148          170/  7/  8   N/A

$$





USA.gov is the U.S. government's official web portal to all federal, state and local government web resources and services.